Regional Weather Roundup
Issued by NWS Charleston, WV

Home | Current Version | Previous Version | Graphics & Text | Print | Product List | Glossary On
Versions: 1 2 3 4 5 6 7 8 9 10 11 12 13 14 15 16 17 18 19 20 21 22 23 24 25 26 27 28 29 30 31 32 33 34 35 36 37 38 39 40 41 42 43 44 45 46 47 48 49 50
000
ASUS41 KRLX 241810
RWRRLX
West Virginia Regional Weather Roundup
National Weather Service Charleston WV
100 PM EST SAT FEB 24 2018

Note: "fair" indicates few or no clouds below 12,000 feet with no
significant weather and/or obstructions to visibility.

WVZ003-241900-
Northern Panhandle of West Virginia

CITY           SKY/WX    TMP DP  RH WIND       PRES   REMARKS
WHEELING       LGT RAIN  46  43  89 E9        30.10F FOG
$$

WVZ009-241900-
Northwest West Virginia

CITY           SKY/WX    TMP DP  RH WIND       PRES   REMARKS
PARKERSBURG    RAIN      50  48  93 NE10      30.09F FOG
$$

WVZ006-241900-
Western West Virginia

CITY           SKY/WX    TMP DP  RH WIND       PRES   REMARKS
HUNTINGTON     LGT RAIN  56  54  93 N7        30.02S FOG
$$

WVZ015-241900-
West Central West Virginia

CITY           SKY/WX    TMP DP  RH WIND       PRES   REMARKS
CHARLESTON     LGT RAIN  62  60  93 CALM      30.00F FOG
$$

WVZ022-031-241900-
North Central West Virginia

CITY           SKY/WX    TMP DP  RH WIND       PRES   REMARKS
CLARKSBURG     LGT RAIN  52  49  89 N9        30.05F FOG
MORGANTOWN     RAIN      48  46  93 N13       30.09S FOG
$$

WVZ025-035-042-045-241900-
Southern West Virginia

CITY           SKY/WX    TMP DP  RH WIND       PRES   REMARKS
BECKLEY        PTSUNNY   65  56  72 SW12G22   30.07F
LOGAN          PTSUNNY   66  59  77 S6G14     30.04F
BLUEFIELD      PTSUNNY   65  53  65 W15G22    30.12F
LEWISBURG      PTSUNNY   60  58  93 SW8       30.11F
$$

WVZ047-241900-
Northern Mountains of West Virginia

CITY           SKY/WX    TMP DP  RH WIND       PRES   REMARKS
ELKINS         LGT RAIN  60  57  89 SE6       30.07F
$$

WVZ052-241900-
Eastern Panhandle of West Virginia

CITY           SKY/WX    TMP DP  RH WIND       PRES   REMARKS
MARTINSBURG    LGT RAIN  47  46  97 N5        30.13F FOG
PETERSBURG     LGT RAIN  49  47  94 CALM      30.12F
$$



USA.gov is the U.S. government's official web portal to all federal, state and local government web resources and services.